Time,TemperatureF,DewpointF,PressureIn,WindDirection,WindDirectionDegrees,WindSpeedMPH,WindSpeedGustMPH,Humidity,HourlyPrecipIn,Conditions,Clouds,dailyrainin,SoftwareType,DateUTC
2013-01-04 00:00:00,8.0,4.9,29.93,SSW,206,2.0,2.0,87,0.00,,,0.00,Wunderground v.1.15,2013-01-04 04:00:00,
2013-01-04 00:10:00,7.9,5.1,29.92,SW,221,2.0,2.0,88,0.00,,,0.00,Wunderground v.1.15,2013-01-04 04:10:00,
2013-01-04 00:20:00,8.1,5.3,29.92,SSW,195,2.0,22.0,88,0.00,,,0.00,Wunderground v.1.15,2013-01-04 04:20:00,
2013-01-04 00:30:00,8.3,5.5,29.92,SSW,210,2.0,22.0,88,0.00,,,0.00,Wunderground v.1.15,2013-01-04 04:30:00,
2013-01-04 00:40:00,8.6,5.8,29.92,SW,226,2.0,22.0,88,0.00,,,0.00,Wunderground v.1.15,2013-01-04 04:40:00,
2013-01-04 00:50:00,8.9,5.8,29.92,SSW,202,2.0,2.0,87,0.00,,,0.00,Wunderground v.1.15,2013-01-04 04:50:00,
2013-01-04 01:10:00,9.2,5.9,29.91,WSW,237,3.0,22.0,86,0.00,,,0.00,Wunderground v.1.15,2013-01-04 05:10:00,
2013-01-04 01:20:00,9.1,5.8,29.91,SW,221,2.0,22.0,86,0.00,,,0.00,Wunderground v.1.15,2013-01-04 05:20:00,
2013-01-04 01:30:00,8.8,5.5,29.91,WSW,240,2.0,2.0,86,0.00,,,0.00,Wunderground v.1.15,2013-01-04 05:30:00,
2013-01-04 01:40:00,8.7,5.4,29.91,WSW,242,2.0,2.0,86,0.00,,,0.00,Wunderground v.1.15,2013-01-04 05:40:00,
2013-01-04 01:50:00,8.3,4.7,29.91,SW,215,2.0,22.0,85,0.00,,,0.00,Wunderground v.1.15,2013-01-04 05:50:00,
2013-01-04 02:00:00,8.3,4.7,29.91,SW,219,3.0,3.0,85,0.00,,,0.00,Wunderground v.1.15,2013-01-04 06:00:00,
2013-01-04 02:10:00,8.3,4.7,29.91,SW,219,3.0,22.0,85,0.00,,,0.00,Wunderground v.1.15,2013-01-04 06:10:00,
2013-01-04 02:20:00,8.2,4.6,29.92,SSW,197,3.0,3.0,85,0.00,,,0.00,Wunderground v.1.15,2013-01-04 06:20:00,
2013-01-04 02:30:00,8.3,5.0,29.92,SW,221,3.0,3.0,86,0.00,,,0.00,Wunderground v.1.15,2013-01-04 06:30:00,
2013-01-04 02:40:00,8.4,5.1,29.92,SW,222,3.0,22.0,86,0.00,,,0.00,Wunderground v.1.15,2013-01-04 06:40:00,
2013-01-04 02:50:00,8.5,5.2,29.91,SW,221,3.0,22.0,86,0.00,,,0.00,Wunderground v.1.15,2013-01-04 06:50:00,
2013-01-04 03:00:00,8.8,5.5,29.92,SW,228,4.0,22.0,86,0.00,,,0.00,Wunderground v.1.15,2013-01-04 07:00:00,
2013-01-04 03:10:00,9.0,5.7,29.92,SSW,196,4.0,4.0,86,0.00,,,0.00,Wunderground v.1.15,2013-01-04 07:10:00,
2013-01-04 03:20:00,9.1,5.8,29.92,WSW,248,4.0,22.0,86,0.00,,,0.00,Wunderground v.1.15,2013-01-04 07:20:00,
2013-01-04 03:30:00,9.1,5.8,29.92,SSW,205,4.0,4.0,86,0.00,,,0.00,Wunderground v.1.15,2013-01-04 07:30:00,
2013-01-04 03:40:00,9.2,5.6,29.93,SW,228,4.0,4.0,85,0.00,,,0.00,Wunderground v.1.15,2013-01-04 07:40:00,
2013-01-04 03:50:00,9.2,5.6,29.93,SSW,204,3.0,3.0,85,0.00,,,0.00,Wunderground v.1.15,2013-01-04 07:50:00,
2013-01-04 04:00:00,9.3,5.7,29.93,SW,221,3.0,3.0,85,0.00,,,0.00,Wunderground v.1.15,2013-01-04 08:00:00,
2013-01-04 04:10:00,9.3,5.4,29.93,SW,221,4.0,4.0,84,0.00,,,0.00,Wunderground v.1.15,2013-01-04 08:10:00,
2013-01-04 04:20:00,8.9,5.1,29.93,SW,229,3.0,3.0,84,0.00,,,0.00,Wunderground v.1.15,2013-01-04 08:20:00,
2013-01-04 04:30:00,8.5,4.9,29.94,SW,224,2.0,2.0,85,0.00,,,0.00,Wunderground v.1.15,2013-01-04 08:30:00,
2013-01-04 04:40:00,8.2,4.6,29.93,SW,231,2.0,22.0,85,0.00,,,0.00,Wunderground v.1.15,2013-01-04 08:40:00,
2013-01-04 04:50:00,8.0,4.7,29.94,WSW,240,2.0,2.0,86,0.00,,,0.00,Wunderground v.1.15,2013-01-04 08:50:00,
2013-01-04 05:00:00,7.7,4.4,29.94,SW,231,2.0,22.0,86,0.00,,,0.00,Wunderground v.1.15,2013-01-04 09:00:00,
2013-01-04 05:10:00,7.5,4.2,29.94,SSW,210,2.0,22.0,86,0.00,,,0.00,Wunderground v.1.15,2013-01-04 09:10:00,
2013-01-04 05:20:00,7.3,4.2,29.94,SW,225,2.0,22.0,87,0.00,,,0.00,Wunderground v.1.15,2013-01-04 09:20:00,
2013-01-04 05:30:00,6.9,3.8,29.94,SSW,207,1.0,22.0,87,0.00,,,0.00,Wunderground v.1.15,2013-01-04 09:30:00,
2013-01-04 05:40:00,6.7,3.9,29.94,SSW,207,1.0,22.0,88,0.00,,,0.00,Wunderground v.1.15,2013-01-04 09:40:00,
2013-01-04 05:50:00,6.4,3.6,29.94,SSW,204,1.0,22.0,88,0.00,,,0.00,Wunderground v.1.15,2013-01-04 09:50:00,
2013-01-04 06:00:00,5.9,2.9,29.94,SSW,213,1.0,1.0,87,0.00,,,0.00,Wunderground v.1.15,2013-01-04 10:00:00,
2013-01-04 06:10:00,5.6,2.8,29.94,SW,217,0.0,22.0,88,0.00,,,0.00,Wunderground v.1.15,2013-01-04 10:10:00,
2013-01-04 06:20:00,5.5,2.7,29.94,SSW,210,0.0,22.0,88,0.00,,,0.00,Wunderground v.1.15,2013-01-04 10:20:00,
2013-01-04 06:30:00,5.2,2.4,29.95,SSW,210,1.0,22.0,88,0.00,,,0.00,Wunderground v.1.15,2013-01-04 10:30:00,
2013-01-04 06:40:00,5.1,2.6,29.95,SSW,207,0.0,22.0,89,0.00,,,0.00,Wunderground v.1.15,2013-01-04 10:40:00,
2013-01-04 06:50:00,5.0,2.5,29.96,SSW,197,0.0,22.0,89,0.00,,,0.00,Wunderground v.1.15,2013-01-04 10:50:00,
2013-01-04 07:00:00,4.3,1.5,29.96,SSW,197,0.0,22.0,88,0.00,,,0.00,Wunderground v.1.15,2013-01-04 11:00:00,
2013-01-04 07:10:00,3.9,1.4,29.96,SSW,193,0.0,22.0,89,0.00,,,0.00,Wunderground v.1.15,2013-01-04 11:10:00,
2013-01-04 07:20:00,3.7,1.2,29.96,SSW,198,1.0,22.0,89,0.00,,,0.00,Wunderground v.1.15,2013-01-04 11:20:00,
2013-01-04 07:30:00,3.7,1.4,29.96,SSW,198,1.0,1.0,90,0.00,,,0.00,Wunderground v.1.15,2013-01-04 11:30:00,
2013-01-04 07:40:00,3.9,1.6,29.96,SSW,207,1.0,22.0,90,0.00,,,0.00,Wunderground v.1.15,2013-01-04 11:40:00,
2013-01-04 07:50:00,4.6,2.3,29.97,South,181,2.0,22.0,90,0.00,,,0.00,Wunderground v.1.15,2013-01-04 11:50:00,
2013-01-04 08:00:00,4.7,2.2,29.97,South,185,2.0,22.0,89,0.00,,,0.00,Wunderground v.1.15,2013-01-04 12:00:00,
2013-01-04 08:10:00,5.0,2.5,29.97,SSW,212,2.0,22.0,89,0.00,,,0.00,Wunderground v.1.15,2013-01-04 12:10:00,
2013-01-04 08:20:00,5.5,2.7,29.98,SSW,195,2.0,22.0,88,0.00,,,0.00,Wunderground v.1.15,2013-01-04 12:20:00,
2013-01-04 08:30:00,5.9,3.1,29.97,SSW,195,3.0,3.0,88,0.00,,,0.00,Wunderground v.1.15,2013-01-04 12:30:00,
2013-01-04 08:40:00,6.2,3.2,29.97,South,176,2.0,22.0,87,0.00,,,0.00,Wunderground v.1.15,2013-01-04 12:40:00,
2013-01-04 08:50:00,6.7,3.4,29.97,SSE,152,2.0,22.0,86,0.00,,,0.00,Wunderground v.1.15,2013-01-04 12:50:00,
2013-01-04 09:00:00,7.2,3.6,29.97,SSW,198,2.0,22.0,85,0.00,,,0.00,Wunderground v.1.15,2013-01-04 13:00:00,
2013-01-04 09:10:00,7.6,4.0,29.97,SSW,205,2.0,22.0,85,0.00,,,0.00,Wunderground v.1.15,2013-01-04 13:10:00,
2013-01-04 09:20:00,8.5,4.9,29.97,SSW,198,3.0,3.0,85,0.00,,,0.00,Wunderground v.1.15,2013-01-04 13:20:00,
2013-01-04 09:30:00,9.4,5.5,29.97,SSW,197,2.0,22.0,84,0.00,,,0.00,Wunderground v.1.15,2013-01-04 13:30:00,
2013-01-04 09:40:00,9.6,5.7,29.97,South,175,3.0,22.0,84,0.00,,,0.00,Wunderground v.1.15,2013-01-04 13:40:00,
2013-01-04 09:50:00,9.9,6.0,29.97,South,172,3.0,3.0,84,0.00,,,0.00,Wunderground v.1.15,2013-01-04 13:50:00,
2013-01-04 10:00:00,10.4,6.3,29.98,SSW,197,5.0,5.0,83,0.00,,,0.00,Wunderground v.1.15,2013-01-04 14:00:00,
2013-01-04 10:10:00,10.0,6.1,29.97,SW,229,4.0,22.0,84,0.00,,,0.00,Wunderground v.1.15,2013-01-04 14:10:00,
2013-01-04 10:20:00,10.4,6.3,29.97,SSW,195,4.0,22.0,83,0.00,,,0.00,Wunderground v.1.15,2013-01-04 14:20:00,
2013-01-04 10:30:00,10.8,6.4,29.97,SSW,204,5.0,22.0,82,0.00,,,0.00,Wunderground v.1.15,2013-01-04 14:30:00,
2013-01-04 10:40:00,11.0,6.3,29.97,SSW,205,4.0,22.0,81,0.00,,,0.00,Wunderground v.1.15,2013-01-04 14:40:00,
2013-01-04 10:50:00,10.9,6.2,29.96,SSW,210,5.0,22.0,81,0.00,,,0.00,Wunderground v.1.15,2013-01-04 14:50:00,
2013-01-04 11:00:00,10.7,6.0,29.95,South,183,5.0,22.0,81,0.00,,,0.00,Wunderground v.1.15,2013-01-04 15:00:00,
2013-01-04 11:10:00,11.0,6.0,29.95,South,184,5.0,22.0,80,0.00,,,0.00,Wunderground v.1.15,2013-01-04 15:10:00,
2013-01-04 11:20:00,11.7,6.4,29.95,SSE,163,6.0,22.0,79,0.00,,,0.00,Wunderground v.1.15,2013-01-04 15:20:00,
2013-01-04 11:30:00,11.9,6.1,29.94,SSW,195,6.0,6.0,77,0.00,,,0.00,Wunderground v.1.15,2013-01-04 15:30:00,
2013-01-04 11:40:00,12.0,5.3,29.94,SSW,205,4.0,22.0,74,0.00,,,0.00,Wunderground v.1.15,2013-01-04 15:40:00,
2013-01-04 11:50:00,11.7,5.0,29.93,SW,228,4.0,22.0,74,0.00,,,0.00,Wunderground v.1.15,2013-01-04 15:50:00,
2013-01-04 12:00:00,11.4,5.0,29.92,SSW,195,5.0,5.0,75,0.00,,,0.00,Wunderground v.1.15,2013-01-04 16:00:00,
2013-01-04 12:10:00,11.6,5.8,29.92,SW,214,4.0,22.0,77,0.00,,,0.00,Wunderground v.1.15,2013-01-04 16:10:00,
2013-01-04 12:20:00,12.8,6.7,29.91,SSW,208,4.0,4.0,76,0.00,,,0.00,Wunderground v.1.15,2013-01-04 16:20:00,
2013-01-04 12:30:00,13.5,7.0,29.91,South,191,4.0,22.0,75,0.00,,,0.00,Wunderground v.1.15,2013-01-04 16:30:00,
2013-01-04 12:40:00,14.1,7.6,29.90,SSW,198,5.0,22.0,75,0.00,,,0.00,Wunderground v.1.15,2013-01-04 16:40:00,
2013-01-04 12:50:00,14.5,8.0,29.90,SSW,197,5.0,5.0,75,0.00,,,0.00,Wunderground v.1.15,2013-01-04 16:50:00,
2013-01-04 13:00:00,15.1,8.9,29.88,SE,146,4.0,22.0,76,0.00,,,0.00,Wunderground v.1.15,2013-01-04 17:00:00,
2013-01-04 13:10:00,16.3,10.1,29.88,SSE,167,3.0,22.0,76,0.00,,,0.00,Wunderground v.1.15,2013-01-04 17:10:00,
2013-01-04 13:20:00,17.0,10.7,29.87,SE,137,3.0,22.0,76,0.00,,,0.00,Wunderground v.1.15,2013-01-04 17:20:00,
2013-01-04 13:30:00,17.3,11.6,29.86,SSW,194,4.0,22.0,78,0.00,,,0.00,Wunderground v.1.15,2013-01-04 17:30:00,
2013-01-04 13:40:00,17.3,12.2,29.86,SSW,194,3.0,22.0,80,0.00,,,0.00,Wunderground v.1.15,2013-01-04 17:40:00,
2013-01-04 13:50:00,17.7,12.6,29.85,SSE,160,4.0,22.0,80,0.00,,,0.00,Wunderground v.1.15,2013-01-04 17:50:00,
2013-01-04 14:00:00,17.7,13.1,29.84,South,186,4.0,22.0,82,0.00,,,0.00,Wunderground v.1.15,2013-01-04 18:00:00,
2013-01-04 14:10:00,18.1,13.5,29.84,South,182,4.0,22.0,82,0.00,,,0.00,Wunderground v.1.15,2013-01-04 18:10:00,
2013-01-04 14:20:00,18.2,13.6,29.83,South,170,5.0,22.0,82,0.00,,,0.00,Wunderground v.1.15,2013-01-04 18:20:00,
2013-01-04 14:30:00,18.4,14.4,29.83,SSW,194,4.0,22.0,84,0.00,,,0.00,Wunderground v.1.15,2013-01-04 18:30:00,
2013-01-04 14:40:00,18.7,14.9,29.82,South,172,4.0,22.0,85,0.00,,,0.00,Wunderground v.1.15,2013-01-04 18:40:00,
2013-01-04 14:50:00,19.0,15.2,29.82,South,183,5.0,5.0,85,0.00,,,0.00,Wunderground v.1.15,2013-01-04 18:50:00,
2013-01-04 15:00:00,19.2,15.4,29.82,South,175,5.0,22.0,85,0.00,,,0.00,Wunderground v.1.15,2013-01-04 19:00:00,
2013-01-04 15:10:00,19.4,15.6,29.81,South,186,5.0,5.0,85,0.00,,,0.00,Wunderground v.1.15,2013-01-04 19:10:00,
2013-01-04 15:20:00,19.6,16.1,29.81,South,183,6.0,22.0,86,0.00,,,0.00,Wunderground v.1.15,2013-01-04 19:20:00,
2013-01-04 15:30:00,20.0,16.8,29.81,SSE,159,6.0,6.0,87,0.00,,,0.00,Wunderground v.1.15,2013-01-04 19:30:00,
2013-01-04 15:40:00,20.2,16.7,29.81,SSE,148,5.0,22.0,86,0.00,,,0.00,Wunderground v.1.15,2013-01-04 19:40:00,
2013-01-04 15:50:00,19.9,16.7,29.81,SE,130,4.0,22.0,87,0.00,,,0.00,Wunderground v.1.15,2013-01-04 19:50:00,
2013-01-04 16:00:00,20.0,16.8,29.81,SSE,155,5.0,22.0,87,0.00,,,0.00,Wunderground v.1.15,2013-01-04 20:00:00,
2013-01-04 16:10:00,19.9,16.9,29.81,SSW,198,4.0,22.0,88,0.00,,,0.00,Wunderground v.1.15,2013-01-04 20:10:00,
2013-01-04 16:20:00,20.1,17.1,29.81,South,180,5.0,22.0,88,0.00,,,0.00,Wunderground v.1.15,2013-01-04 20:20:00,
2013-01-04 16:30:00,20.1,17.1,29.81,South,173,5.0,22.0,88,0.00,,,0.00,Wunderground v.1.15,2013-01-04 20:30:00,
2013-01-04 16:40:00,20.1,17.4,29.81,SSE,152,5.0,22.0,89,0.00,,,0.00,Wunderground v.1.15,2013-01-04 20:40:00,
2013-01-04 16:50:00,20.3,17.8,29.80,SSE,148,5.0,5.0,90,0.00,,,0.00,Wunderground v.1.15,2013-01-04 20:50:00,
2013-01-04 17:00:00,20.4,17.9,29.80,SSE,156,5.0,22.0,90,0.00,,,0.00,Wunderground v.1.15,2013-01-04 21:00:00,
2013-01-04 17:10:00,20.8,18.6,29.80,SSE,163,5.0,22.0,91,0.00,,,0.00,Wunderground v.1.15,2013-01-04 21:10:00,
2013-01-04 17:20:00,21.3,19.3,29.80,SSE,147,5.0,5.0,92,0.00,,,0.00,Wunderground v.1.15,2013-01-04 21:20:00,
2013-01-04 17:30:00,21.9,20.2,29.80,South,187,4.0,4.0,93,0.00,,,0.00,Wunderground v.1.15,2013-01-04 21:30:00,
2013-01-04 17:40:00,22.6,20.9,29.80,SSW,193,5.0,22.0,93,0.00,,,0.00,Wunderground v.1.15,2013-01-04 21:40:00,
2013-01-04 17:50:00,23.3,21.6,29.80,South,174,5.0,22.0,93,0.00,,,0.00,Wunderground v.1.15,2013-01-04 21:50:00,
2013-01-04 18:00:00,23.7,22.0,29.79,South,179,5.0,5.0,93,0.00,,,0.00,Wunderground v.1.15,2013-01-04 22:00:00,
2013-01-04 18:10:00,23.9,22.2,29.79,SSW,195,5.0,5.0,93,0.00,,,0.00,Wunderground v.1.15,2013-01-04 22:10:00,
2013-01-04 18:20:00,24.0,22.3,29.79,SSW,194,6.0,22.0,93,0.00,,,0.00,Wunderground v.1.15,2013-01-04 22:20:00,
2013-01-04 18:30:00,24.0,22.3,29.78,SSW,209,5.0,22.0,93,0.00,,,0.00,Wunderground v.1.15,2013-01-04 22:30:00,
2013-01-04 18:40:00,23.9,21.9,29.78,SW,214,5.0,5.0,92,0.00,,,0.00,Wunderground v.1.15,2013-01-04 22:40:00,
2013-01-04 18:50:00,23.9,22.2,29.77,South,180,5.0,22.0,93,0.00,,,0.00,Wunderground v.1.15,2013-01-04 22:50:00,
2013-01-04 19:00:00,24.0,22.3,29.77,SSE,157,6.0,22.0,93,0.00,,,0.00,Wunderground v.1.15,2013-01-04 23:00:00,
2013-01-04 19:10:00,24.2,22.5,29.77,SSE,158,7.0,22.0,93,0.00,,,0.00,Wunderground v.1.15,2013-01-04 23:10:00,
2013-01-04 19:20:00,24.4,22.7,29.76,SSE,159,6.0,22.0,93,0.00,,,0.00,Wunderground v.1.15,2013-01-04 23:20:00,
2013-01-04 19:30:00,24.7,23.0,29.76,South,186,7.0,22.0,93,0.00,,,0.00,Wunderground v.1.15,2013-01-04 23:30:00,
2013-01-04 19:40:00,25.0,23.0,29.75,SSE,156,7.0,22.0,92,0.00,,,0.00,Wunderground v.1.15,2013-01-04 23:40:00,
2013-01-04 19:50:00,25.2,23.2,29.75,SSW,196,7.0,22.0,92,0.00,,,0.00,Wunderground v.1.15,2013-01-04 23:50:00,
2013-01-04 20:00:00,25.3,23.3,29.75,SSE,157,8.0,8.0,92,0.00,,,0.00,Wunderground v.1.15,2013-01-05 00:00:00,
2013-01-04 20:10:00,25.3,23.3,29.74,South,180,7.0,7.0,92,0.00,,,0.00,Wunderground v.1.15,2013-01-05 00:10:00,
2013-01-04 20:20:00,25.4,23.4,29.74,SE,137,7.0,22.0,92,0.00,,,0.00,Wunderground v.1.15,2013-01-05 00:20:00,
2013-01-04 20:30:00,25.4,23.7,29.73,South,180,6.0,6.0,93,0.00,,,0.00,Wunderground v.1.15,2013-01-05 00:30:00,
2013-01-04 20:40:00,25.4,23.7,29.73,SE,137,6.0,6.0,93,0.00,,,0.00,Wunderground v.1.15,2013-01-05 00:40:00,
2013-01-04 20:50:00,25.2,23.5,29.73,SSW,210,4.0,4.0,93,0.00,,,0.00,Wunderground v.1.15,2013-01-05 00:50:00,
2013-01-04 21:00:00,25.1,23.4,29.73,SSW,194,4.0,4.0,93,0.00,,,0.00,Wunderground v.1.15,2013-01-05 01:00:00,
2013-01-04 21:10:00,25.2,23.2,29.73,South,175,3.0,22.0,92,0.00,,,0.00,Wunderground v.1.15,2013-01-05 01:10:00,
2013-01-04 21:20:00,25.5,23.8,29.72,South,191,4.0,22.0,93,0.00,,,0.00,Wunderground v.1.15,2013-01-05 01:20:00,
2013-01-04 21:30:00,25.7,23.4,29.72,South,177,5.0,5.0,91,0.00,,,0.00,Wunderground v.1.15,2013-01-05 01:30:00,
2013-01-04 21:40:00,26.1,23.8,29.72,SSW,192,4.0,22.0,91,0.00,,,0.00,Wunderground v.1.15,2013-01-05 01:40:00,
2013-01-04 21:50:00,26.7,24.2,29.72,SSW,194,5.0,22.0,90,0.00,,,0.00,Wunderground v.1.15,2013-01-05 01:50:00,
2013-01-04 22:00:00,27.0,24.5,29.72,South,183,4.0,4.0,90,0.00,,,0.00,Wunderground v.1.15,2013-01-05 02:00:00,
2013-01-04 22:10:00,27.0,24.5,29.72,South,170,4.0,22.0,90,0.00,,,0.00,Wunderground v.1.15,2013-01-05 02:10:00,
2013-01-04 22:20:00,26.9,24.4,29.72,SSW,200,4.0,22.0,90,0.00,,,0.00,Wunderground v.1.15,2013-01-05 02:20:00,
2013-01-04 22:30:00,27.0,24.5,29.72,SSW,210,4.0,4.0,90,0.00,,,0.00,Wunderground v.1.15,2013-01-05 02:30:00,
2013-01-04 22:40:00,27.2,24.7,29.72,SSW,195,3.0,3.0,90,0.00,,,0.00,Wunderground v.1.15,2013-01-05 02:40:00,
2013-01-04 22:50:00,27.3,24.5,29.72,SSW,203,4.0,22.0,89,0.00,,,0.00,Wunderground v.1.15,2013-01-05 02:50:00,
2013-01-04 23:00:00,27.3,24.5,29.72,South,181,3.0,22.0,89,0.00,,,0.00,Wunderground v.1.15,2013-01-05 03:00:00,
2013-01-04 23:10:00,27.4,24.3,29.72,SSW,195,2.0,2.0,88,0.00,,,0.00,Wunderground v.1.15,2013-01-05 03:10:00,
2013-01-04 23:20:00,27.4,24.3,29.73,SW,214,2.0,2.0,88,0.00,,,0.00,Wunderground v.1.15,2013-01-05 03:20:00,
2013-01-04 23:30:00,27.5,24.1,29.73,South,191,3.0,3.0,87,0.00,,,0.00,Wunderground v.1.15,2013-01-05 03:30:00,
2013-01-04 23:40:00,27.6,24.2,29.73,SSE,161,3.0,3.0,87,0.00,,,0.00,Wunderground v.1.15,2013-01-05 03:40:00,
2013-01-04 23:50:00,27.5,24.1,29.73,SW,222,3.0,3.0,87,0.00,,,0.00,Wunderground v.1.15,2013-01-05 03:50:00,